GW5669 Weather Reports


time (UTC)temp
C
wind
direction
speed
KPH
gust
KPH
rain 1hr
cm
rain 24hr
cm
rain mn
cm
humidity
%
barometer
mb
20260508002113 14 354 6.4 12.9 0.00 0.00 0.00 42 1012.2
20260508001608 14 257 9.7 11.3 0.00 0.00 0.00 42 1012.1
20260508001104 14 289 9.7 14.5 0.00 0.00 0.00 42 1011.7
20260508000600 14 338 4.8 9.7 0.00 0.00 0.00 44 1011.8
20260508000058 15 260 4.8 9.7 0.00 0.00 0.00 43 1011.7
20260507235554 15 356 6.4 9.7 0.00 0.00 0.00 42 1011.5
20260507235052 15 343 3.2 4.8 0.00 0.00 0.00 41 1011.5
20260507234548 16 252 6.4 9.7 0.00 0.00 0.00 40 1011.5
20260507234045 16 325 4.8 6.4 0.00 0.00 0.00 41 1011.4
20260507233541 16 312 6.4 11.3 0.00 0.00 0.00 41 1011.3
20260507233041 16 266 8.0 14.5 0.00 0.00 0.00 41 1011.2
20260507232536 16 281 6.4 12.9 0.00 0.00 0.00 40 1011.3
20260507232034 16 3 8.0 14.5 0.00 0.00 0.00 40 1011.0
20260507231530 17 294 8.0 11.3 0.00 0.00 0.00 42 1010.8
20260507231027 17 266 3.2 9.7 0.00 0.00 0.00 41 1010.8
20260507230524 17 301 11.3 14.5 0.00 0.00 0.00 41 1010.7
20260507230021 17 257 11.3 12.9 0.00 0.00 0.00 42 1010.7
20260507225515 17 267 12.9 14.5 0.00 0.00 0.00 41 1010.6
20260507225012 17 261 12.9 14.5 0.00 0.00 0.00 47 1010.6
20260507224508 18 256 8.0 9.7 0.00 0.00 0.00 51 1010.5
20260507224004 18 272 4.8 11.3 0.00 0.00 0.00 52 1010.3
20260507223500 18 121 1.6 3.2 0.00 0.00 0.00 56 1010.4
20260507222958 18 336 3.2 4.8 0.00 0.00 0.00 57 1010.3
20260507222455 18 90 1.6 3.2 0.00 0.00 0.00 57 1010.2
20260507221951 18 104 1.6 4.8 0.00 0.00 0.00 60 1010.1
20260507221448 18 121 1.6 6.4 0.00 0.00 0.00 60 1010.1
20260507220944 18 119 3.2 4.8 0.00 0.00 0.00 59 1010.1
20260507220442 18 105 3.2 6.4 0.00 0.00 0.00 59 1010.1
20260507215938 18 30 1.6 3.2 0.00 0.00 0.00 55 1009.8
20260507215435 18 118 3.2 6.4 0.00 0.00 0.00 56 1009.8
20260507214932 18 150 6.4 9.7 0.00 0.00 0.00 55 1009.8
20260507214430 18 136 3.2 9.7 0.00 0.00 0.00 62 1009.9
20260507213925 18 158 4.8 9.7 0.00 0.00 0.00 62 1009.9
20260507213422 17 151 3.2 4.8 0.00 0.00 0.00 66 1010.1
20260507212919 17 112 1.6 3.2 0.00 0.00 0.00 63 1009.9
20260507212415 17 138 4.8 4.8 0.00 0.00 0.00 66 1009.8
20260507211912 18 105 4.8 9.7 0.00 0.00 0.00 62 1009.8
20260507211408 18 101 1.6 4.8 0.00 0.00 0.00 61 1009.7
20260507210905 18 84 1.6 3.2 0.00 0.00 0.00 60 1009.7
20260507210402 18 127 3.2 4.8 0.00 0.00 0.00 60 1009.7
20260507205859 18 113 1.6 3.2 0.00 0.00 0.00 62 1009.7
20260507205356 18 142 4.8 9.7 0.00 0.00 0.00 60 1009.9
20260507204852 17 149 1.6 3.2 0.00 0.00 0.00 65 1009.7
20260507204349 17 120 3.2 4.8 0.00 0.00 0.00 62 1009.7
20260507203847 16 112 4.8 11.3 0.00 0.00 0.00 65 1009.7
20260507203344 17 168 3.2 14.5 0.00 0.00 0.00 63 1009.6
20260507202840 17 149 11.3 20.9 0.00 0.00 0.00 63 1009.8
20260507202337 17 146 4.8 16.1 0.00 0.00 0.00 65 1009.9
20260507201832 17 150 9.7 14.5 0.00 0.00 0.00 62 1009.9
20260507201328 17 153 14.5 16.1 0.00 0.00 0.00 64 1009.9
20260507200825 17 143 6.4 6.4 0.00 0.00 0.00 63 1009.9
20260507200321 17 163 4.8 9.7 0.00 0.00 0.00 63 1009.9
20260507195817 17 159 9.7 17.7 0.00 0.00 0.00 63 1010.1
20260507195314 17 157 14.5 16.1 0.00 0.00 0.00 62 1010.2
20260507194812 17 111 14.5 17.7 0.00 0.00 0.00 65 1010.1
20260507194308 18 115 17.7 24.1 0.00 0.00 0.00 60 1010.3
20260507193804 17 97 3.2 6.4 0.00 0.00 0.00 64 1010.2
20260507193301 17 143 6.4 17.7 0.00 0.00 0.00 60 1010.3
20260507192757 16 110 11.3 14.5 0.00 0.00 0.00 64 1010.3
20260507192254 16 92 1.6 6.4 0.00 0.00 0.00 64 1010.6
20260507191750 16 103 3.2 12.9 0.00 0.00 0.00 65 1010.7
20260507191247 17 146 14.5 20.9 0.00 0.00 0.00 65 1010.6
20260507190744 16 155 9.7 20.9 0.00 0.00 0.00 66 1010.6
20260507190243 17 7 3.2 12.9 0.00 0.00 0.00 64 1010.7
20260507185741 17 168 14.5 16.1 0.00 0.00 0.00 63 1010.7
20260507185237 17 145 11.3 17.7 0.00 0.00 0.00 65 1010.8
20260507184735 16 98 6.4 9.7 0.00 0.00 0.00 67 1010.8
20260507184233 16 53 3.2 3.2 0.00 0.00 0.00 64 1010.8
20260507183729 16 106 6.4 11.3 0.00 0.00 0.00 65 1010.8
20260507183226 16 127 6.4 14.5 0.00 0.00 0.00 65 1010.9
20260507182723 15 130 14.5 16.1 0.00 0.00 0.00 72 1011.0
20260507182218 15 100 8.0 12.9 0.00 0.00 0.00 67 1011.0
20260507181715 16 144 1.6 3.2 0.00 0.00 0.00 61 1010.9
20260507181212 15 136 6.4 22.5 0.00 0.00 0.00 65 1011.0
20260507180709 15 108 6.4 12.9 0.00 0.00 0.00 65 1011.1
20260507180206 15 107 3.2 4.8 0.00 0.00 0.00 64 1011.3
20260507175701 16 148 8.0 11.3 0.00 0.00 0.00 63 1011.2
20260507175158 16 163 8.0 11.3 0.00 0.00 0.00 63 1011.4
20260507174655 15 139 6.4 11.3 0.00 0.00 0.00 64 1011.4
20260507174154 15 104 3.2 3.2 0.00 0.00 0.00 64 1011.4
20260507173650 15 135 6.4 9.7 0.00 0.00 0.00 64 1011.5
20260507173147 15 136 9.7 11.3 0.00 0.00 0.00 65 1011.7
20260507172644 15 52 1.6 6.4 0.00 0.00 0.00 60 1011.8
20260507172141 15 146 8.0 11.3 0.00 0.00 0.00 63 1012.0
20260507171641 15 133 9.7 11.3 0.00 0.00 0.00 66 1011.8
20260507171138 15 89 4.8 9.7 0.00 0.00 0.00 64 1012.1
20260507170636 15 102 3.2 4.8 0.00 0.00 0.00 66 1011.9
20260507170133 15 69 4.8 11.3 0.00 0.00 0.00 65 1012.1
20260507165628 15 91 6.4 14.5 0.00 0.00 0.00 64 1012.3
20260507165125 15 110 8.0 14.5 0.00 0.00 0.00 66 1012.3
20260507164620 15 133 4.8 6.4 0.00 0.00 0.00 64 1012.2
20260507164117 15 94 1.6 3.2 0.00 0.00 0.00 63 1012.3
20260507163615 15 302 1.6 4.8 0.00 0.00 0.00 64 1012.4
20260507163113 14 148 3.2 4.8 0.00 0.00 0.00 65 1012.4
20260507162608 15 88 3.2 11.3 0.00 0.00 0.00 65 1012.4
20260507162105 15 87 3.2 4.8 0.00 0.00 0.00 65 1012.5
20260507161601 13 86 1.6 9.7 0.00 0.00 0.00 67 1012.6
20260507161058 13 79 4.8 6.4 0.00 0.00 0.00 66 1012.7
20260507160554 13 73 4.8 4.8 0.00 0.00 0.00 67 1012.7
20260507160050 13 81 3.2 9.7 0.00 0.00 0.00 69 1012.8
20260507155546 13 86 6.4 9.7 0.00 0.00 0.00 68 1012.9
20260507155043 13 115 4.8 12.9 0.00 0.00 0.00 69 1013.0
20260507154540 13 82 4.8 9.7 0.00 0.00 0.00 70 1013.0
20260507154037 13 103 1.6 6.4 0.00 0.00 0.00 70 1013.1
20260507153534 13 85 3.2 6.4 0.00 0.00 0.00 67 1013.0
20260507153030 14 77 3.2 11.3 0.00 0.00 0.00 69 1012.9
20260507152526 13 67 4.8 12.9 0.00 0.00 0.00 71 1013.0
20260507152022 14 71 6.4 16.1 0.00 0.00 0.00 67 1013.0
20260507151518 15 90 1.6 4.8 0.00 0.00 0.00 67 1013.1
20260507151016 13 98 9.7 12.9 0.00 0.00 0.00 73 1013.1
20260507150513 12 56 6.4 11.3 0.00 0.00 0.00 73 1013.1
20260507150009 13 79 3.2 6.4 0.00 0.00 0.00 71 1013.3
20260507145504 13 96 0.0 1.6 0.00 0.00 0.00 74 1013.3
20260507145002 12 101 6.4 9.7 0.00 0.00 0.00 73 1013.5
20260507144458 12 61 4.8 6.4 0.00 0.00 0.00 76 1013.4
20260507143955 12 87 4.8 9.7 0.00 0.00 0.00 74 1013.5
20260507143453 12 95 9.7 14.5 0.00 0.00 0.00 76 1013.5
20260507142950 12 38 1.6 12.9 0.00 0.00 0.00 75 1013.5
20260507142445 12 66 6.4 6.4 0.00 0.00 0.00 77 1013.6
20260507141943 12 68 8.0 11.3 0.00 0.00 0.00 78 1014.0
20260507141438 11 82 3.2 6.4 0.00 0.00 0.00 79 1013.7
20260507140935 11 99 1.6 6.4 0.00 0.00 0.00 78 1014.1
20260507140432 11 73 1.6 4.8 0.00 0.00 0.00 78 1014.1
20260507135930 11 54 1.6 3.2 0.00 0.00 0.00 78 1014.1
20260507135426 11 76 1.6 3.2 0.00 0.00 0.00 77 1014.2
20260507134924 11 78 0.0 1.6 0.00 0.00 0.00 78 1014.2
20260507134420 11 68 1.6 3.2 0.00 0.00 0.00 79 1014.1
20260507133916 11 69 1.6 3.2 0.00 0.00 0.00 77 1013.9
20260507133412 11 81 0.0 3.2 0.00 0.00 0.00 78 1014.2
20260507132911 11 92 0.0 1.6 0.00 0.00 0.00 79 1014.2
20260507132407 11 92 0.0 3.2 0.00 0.00 0.00 79 1014.1
20260507131905 11 79 1.6 3.2 0.00 0.00 0.00 79 1014.2
20260507131401 11 79 1.6 6.4 0.00 0.00 0.00 78 1014.2
20260507130858 11 85 1.6 3.2 0.00 0.00 0.00 78 1014.4
20260507130354 11 65 3.2 6.4 0.00 0.00 0.00 78 1014.3
20260507125853 11 70 1.6 4.8 0.00 0.00 0.00 78 1014.3
20260507125350 11 42 1.6 6.4 0.00 0.00 0.00 78 1014.5
20260507124848 11 86 1.6 4.8 0.00 0.00 0.00 78 1014.4
20260507124344 11 44 4.8 6.4 0.00 0.00 0.00 78 1014.2
20260507123843 11 92 3.2 4.8 0.00 0.00 0.00 78 1014.4
20260507123339 11 49 3.2 4.8 0.00 0.00 0.00 78 1014.5
20260507122836 11 58 3.2 6.4 0.00 0.00 0.00 78 1014.3
20260507122331 11 79 1.6 4.8 0.00 0.00 0.00 78 1014.3
20260507121828 11 75 3.2 4.8 0.00 0.00 0.00 78 1014.3
20260507121323 11 77 1.6 3.2 0.00 0.00 0.00 78 1014.0
20260507120820 11 88 0.0 1.6 0.00 0.00 0.00 79 1013.9
20260507120316 11 66 1.6 3.2 0.00 0.00 0.00 78 1013.6
20260507115813 11 69 1.6 4.8 0.00 0.00 0.00 78 1013.6
20260507115308 11 90 3.2 4.8 0.00 0.00 0.00 78 1013.9
20260507114804 11 70 1.6 3.2 0.00 0.00 0.00 78 1014.0
20260507114302 11 83 1.6 3.2 0.00 0.00 0.00 78 1014.0
20260507113759 11 56 1.6 3.2 0.00 0.00 0.00 78 1013.6
20260507113256 11 56 3.2 4.8 0.00 0.00 0.00 79 1013.7
20260507112754 11 53 1.6 4.8 0.00 0.00 0.00 79 1013.4
20260507112250 11 57 3.2 3.2 0.00 0.00 0.00 79 1013.5
20260507111748 11 65 1.6 3.2 0.00 0.00 0.00 80 1013.7
20260507111244 10 88 1.6 3.2 0.00 0.00 0.00 79 1013.6
20260507110740 10 67 1.6 4.8 0.00 0.00 0.00 79 1013.5
20260507110237 10 68 3.2 4.8 0.00 0.00 0.00 79 1013.4
20260507105734 10 53 3.2 4.8 0.00 0.00 0.00 80 1013.3
20260507105230 10 81 1.6 9.7 0.00 0.00 0.00 80 1013.2
20260507104727 10 85 1.6 3.2 0.00 0.00 0.00 81 1013.3
20260507104224 10 75 0.0 3.2 0.00 0.00 0.00 81 1013.2
20260507103720 10 76 1.6 3.2 0.00 0.00 0.00 80 1013.2
20260507103216 10 67 1.6 4.8 0.00 0.00 0.00 80 1013.1
20260507102713 10 71 3.2 4.8 0.00 0.00 0.00 80 1013.1
20260507102210 10 73 1.6 6.4 0.00 0.00 0.00 80 1013.3
20260507101706 10 86 3.2 6.4 0.00 0.00 0.00 81 1013.3
20260507101201 10 82 1.6 6.4 0.00 0.00 0.00 81 1013.3
20260507100659 10 65 1.6 4.8 0.00 0.00 0.00 81 1013.1
20260507100157 10 86 1.6 6.4 0.00 0.00 0.00 81 1013.3
20260507095655 10 73 1.6 4.8 0.00 0.00 0.00 81 1013.2
20260507095151 10 82 1.6 3.2 0.00 0.00 0.00 81 1013.2
20260507094647 10 85 1.6 6.4 0.00 0.00 0.00 81 1012.9
20260507094144 10 75 1.6 3.2 0.00 0.00 0.00 82 1013.1
20260507093642 10 74 3.2 4.8 0.00 0.00 0.00 82 1013.0
20260507093141 11 66 1.6 6.4 0.00 0.00 0.00 82 1013.0
20260507092637 11 63 3.2 4.8 0.00 0.00 0.00 83 1012.9
20260507092133 11 73 1.6 6.4 0.00 0.00 0.00 83 1013.1
20260507091630 11 68 3.2 4.8 0.00 0.00 0.00 84 1012.7
20260507091126 11 79 3.2 4.8 0.00 0.00 0.00 84 1012.8
20260507090622 11 48 3.2 4.8 0.00 0.00 0.00 84 1012.8
20260507090119 11 66 0.0 1.6 0.00 0.00 0.00 84 1013.0
20260507085616 11 79 0.0 3.2 0.00 0.00 0.00 84 1012.8
20260507085112 11 84 4.8 4.8 0.00 0.00 0.00 84 1012.9
20260507084609 11 55 3.2 6.4 0.00 0.00 0.00 84 1012.5
20260507084106 11 73 3.2 9.7 0.00 0.00 0.00 85 1012.7
20260507083603 11 43 4.8 4.8 0.00 0.00 0.00 84 1012.8
20260507083100 11 71 3.2 6.4 0.00 0.00 0.00 84 1012.5
20260507082555 11 51 6.4 9.7 0.00 0.00 0.00 84 1012.4
20260507082052 11 92 3.2 9.7 0.00 0.00 0.00 84 1012.6
20260507081548 11 82 1.6 4.8 0.00 0.00 0.00 84 1012.6
20260507081046 11 69 3.2 9.7 0.00 0.00 0.00 84 1012.7
20260507080541 11 48 6.4 11.3 0.00 0.00 0.00 83 1012.7
20260507080038 11 82 4.8 6.4 0.00 0.00 0.00 84 1012.9
20260507075533 11 82 3.2 9.7 0.00 0.00 0.00 84 1013.2
20260507075030 11 105 4.8 6.4 0.00 0.00 0.00 84 1012.9
20260507074526 11 75 4.8 6.4 0.00 0.00 0.00 84 1012.7
20260507074025 11 57 4.8 9.7 0.00 0.00 0.00 84 1012.7
20260507073521 11 76 3.2 11.3 0.00 0.00 0.00 84 1012.8
20260507073018 11 62 3.2 6.4 0.00 0.00 0.00 85 1012.7
20260507072515 11 81 3.2 6.4 0.00 0.00 0.00 84 1012.6
20260507072012 12 47 3.2 11.3 0.00 0.00 0.00 85 1012.7
20260507071509 12 83 3.2 4.8 0.00 0.00 0.00 85 1012.5
20260507071006 12 55 4.8 6.4 0.00 0.00 0.00 85 1012.3
20260507070503 12 90 3.2 11.3 0.00 0.00 0.00 85 1012.3
20260507070000 12 70 3.2 9.7 0.00 0.00 0.00 85 1012.2
20260507065456 12 91 3.2 4.8 0.00 0.00 0.00 85 1012.4
20260507064954 12 65 1.6 9.7 0.00 0.00 0.00 85 1012.2
20260507064452 12 66 4.8 6.4 0.00 0.00 0.00 85 1012.5
20260507063949 12 68 3.2 9.7 0.00 0.00 0.00 85 1012.3
20260507063446 12 88 1.6 6.4 0.00 0.00 0.00 86 1012.3
20260507062943 13 75 3.2 4.8 0.00 0.00 0.00 86 1012.5
20260507062441 13 78 3.2 6.4 0.00 0.00 0.00 85 1012.4
20260507061938 13 62 3.2 9.7 0.00 0.00 0.00 85 1012.1
20260507061436 13 75 3.2 9.7 0.00 0.00 0.00 86 1012.2
20260507060934 13 73 3.2 4.8 0.00 0.00 0.00 87 1012.3
20260507060430 13 85 4.8 6.4 0.00 0.00 0.00 87 1012.1
20260507055927 13 64 4.8 6.4 0.00 0.00 0.00 87 1012.4
20260507055422 13 86 3.2 9.7 0.00 0.00 0.00 87 1012.5
20260507054920 13 67 4.8 11.3 0.00 0.00 0.00 87 1012.7
20260507054415 13 66 1.6 3.2 0.00 0.00 0.00 87 1012.7
20260507053913 13 77 4.8 6.4 0.00 0.00 0.00 88 1012.7
20260507053410 13 89 6.4 9.7 0.00 0.00 0.00 88 1012.4
20260507052909 13 77 1.6 4.8 0.00 0.00 0.00 86 1012.7
20260507052406 14 67 3.2 6.4 0.00 0.00 0.00 86 1012.5
20260507051903 14 73 1.6 9.7 0.00 0.00 0.00 86 1012.3
20260507051401 14 46 3.2 4.8 0.00 0.00 0.00 86 1012.0
20260507050857 14 71 1.6 4.8 0.00 0.00 0.00 88 1012.3
20260507050354 14 87 1.6 4.8 0.00 0.00 0.00 90 1012.3
20260507045851 15 74 0.0 0.0 0.00 0.25 0.25 91 1012.4
20260507045347 15 74 0.0 1.6 0.00 0.25 0.25 90 1012.2
20260507044845 15 70 1.6 4.8 0.00 0.25 0.25 90 1012.1
20260507044341 15 78 1.6 3.2 0.00 0.25 0.25 89 1011.9
20260507043837 15 72 0.0 1.6 0.00 0.25 0.25 90 1012.0
20260507043334 15 72 3.2 3.2 0.00 0.25 0.25 92 1012.1
20260507042830 15 86 3.2 3.2 0.00 0.25 0.25 92 1011.9
20260507042325 15 72 0.0 1.6 0.00 0.25 0.25 92 1011.8
20260507041823 15 69 1.6 9.7 0.00 0.25 0.25 92 1011.3
20260507041319 15 94 4.8 6.4 0.00 0.25 0.25 92 1010.8
20260507040816 15 99 4.8 6.4 0.00 0.25 0.25 93 1010.6
20260507040312 15 88 3.2 4.8 0.00 0.25 0.25 93 1011.2
20260507035808 15 94 3.2 6.4 0.00 0.25 0.25 93 1011.4
20260507035306 15 91 1.6 1.6 0.00 0.25 0.25 93 1012.3
20260507034802 15 97 3.2 3.2 0.00 0.25 0.25 92 1012.4
20260507034258 15 87 0.0 0.0 0.00 0.25 0.25 91 1012.6
20260507033757 15 81 0.0 3.2 0.48 0.25 0.25 91 1012.3
20260507033254 16 94 1.6 1.6 0.61 0.25 0.25 90 1012.4
20260507032751 16 22 0.0 1.6 0.13 0.18 0.18 90 1012.6
20260507032247 16 24 3.2 3.2 0.00 0.15 0.15 90 1012.7
20260507031743 16 75 0.0 0.0 0.00 0.15 0.15 89 1012.7
20260507031241 16 306 0.0 1.6 0.00 0.15 0.15 89 1012.3
20260507030737 16 309 1.6 4.8 0.00 0.15 0.15 89 1012.1
20260507030235 16 74 0.0 4.8 0.00 0.15 0.15 89 1011.7
20260507025732 16 70 0.0 1.6 0.00 0.15 0.15 89 1012.1
20260507025229 16 70 0.0 0.0 0.00 0.15 0.15 89 1012.1
20260507024727 16 73 1.6 3.2 0.00 0.15 0.15 88 1011.8
20260507024224 16 73 0.0 1.6 0.00 0.15 0.15 89 1012.2
20260507023720 16 73 0.0 0.0 0.00 0.15 0.15 89 1012.2
20260507023217 16 73 0.0 1.6 0.00 0.15 0.15 89 1012.3
20260507022714 16 73 0.0 0.0 0.00 0.15 0.15 89 1012.2
20260507022210 16 73 1.6 3.2 0.00 0.15 0.15 88 1012.0
20260507021706 16 75 0.0 0.0 0.00 0.15 0.15 87 1011.8
20260507021201 16 78 1.6 1.6 0.00 0.15 0.15 87 1011.5
20260507020701 16 95 3.2 6.4 0.00 0.15 0.15 87 1011.7
20260507020156 16 92 3.2 3.2 0.18 0.15 0.15 86 1011.1
20260507015654 16 87 1.6 3.2 0.18 0.15 0.15 84 1011.7
20260507015151 16 80 0.0 1.6 0.00 0.13 0.13 84 1011.8
20260507014648 16 93 1.6 1.6 0.00 0.13 0.13 85 1011.7
20260507014144 16 51 0.0 1.6 0.00 0.13 0.13 84 1011.8
20260507013641 17 51 1.6 3.2 0.00 0.13 0.13 83 1011.5
20260507013138 17 70 1.6 1.6 0.00 0.13 0.13 82 1011.5
20260507012635 17 73 1.6 3.2 0.00 0.13 0.13 82 1011.4
20260507012130 17 78 0.0 1.6 0.00 0.13 0.13 83 1011.0
20260507011629 17 78 1.6 9.7 0.00 0.13 0.13 83 1010.8
20260507011125 17 92 1.6 4.8 0.00 0.13 0.13 83 1011.0
20260507010620 17 90 1.6 3.2 0.00 0.13 0.13 83 1010.9
20260507010116 17 99 1.6 4.8 0.00 0.13 0.13 82 1011.0
20260507005614 18 66 3.2 3.2 0.00 0.13 0.13 80 1011.3
20260507005109 18 66 0.0 0.0 0.00 0.13 0.13 80 1011.5
20260507004607 18 66 0.0 0.0 0.00 0.13 0.13 80 1011.4
20260507004104 18 66 0.0 3.2 0.00 0.13 0.13 80 1011.5
20260507003600 18 30 1.6 1.6 0.00 0.13 0.13 80 1011.5
20260507003055 18 32 1.6 3.2 0.00 0.13 0.13 80 1011.4
20260507002552 18 346 0.0 1.6 0.00 0.13 0.13 79 1011.4